******** Week 368 almanac for PRN-01 ******** ID: 01 Health: 000 Eccentricity: 0.1730918884E-002 Time of Applicability(s): 589824.0000 Orbital Inclination(rad): 0.9573622034 Rate of Right Ascen(r/s): -0.8251772291E-008 SQRT(A) (m 1/2): 5153.560547 Right Ascen at Week(rad): 0.2131009781E+001 Argument of Perigee(rad): 0.187976687 Mean Anom(rad): -0.2019012705E+001 Af0(s): 0.2841949463E-003 Af1(s/s): -0.7275957614E-011 week: 368 ******** Week 368 almanac for PRN-02 ******** ID: 02 Health: 000 Eccentricity: 0.1681041718E-001 Time of Applicability(s): 589824.0000 Orbital Inclination(rad): 0.9624195463 Rate of Right Ascen(r/s): -0.8217485148E-008 SQRT(A) (m 1/2): 5153.706543 Right Ascen at Week(rad): 0.1968659111E+001 Argument of Perigee(rad): -0.773807171 Mean Anom(rad): -0.5065892906E+000 Af0(s): 0.9059906006E-004 Af1(s/s): 0.7275957614E-011 week: 368 ******** Week 368 almanac for PRN-03 ******** ID: 03 Health: 000 Eccentricity: 0.6771564484E-002 Time of Applicability(s): 589824.0000 Orbital Inclination(rad): 0.9944294110 Rate of Right Ascen(r/s): -0.7348877539E-008 SQRT(A) (m 1/2): 5153.560547 Right Ascen at Week(rad): 0.3120164110E+001 Argument of Perigee(rad): 1.215592514 Mean Anom(rad): 0.2221640856E+001 Af0(s): 0.4806518555E-003 Af1(s/s): -0.1455191523E-010 week: 368 ******** Week 368 almanac for PRN-04 ******** ID: 04 Health: 000 Eccentricity: 0.3734588623E-002 Time of Applicability(s): 589824.0000 Orbital Inclination(rad): 0.9711260857 Rate of Right Ascen(r/s): -0.7668890869E-008 SQRT(A) (m 1/2): 5153.654785 Right Ascen at Week(rad): -0.2094082639E+001 Argument of Perigee(rad): -2.872804465 Mean Anom(rad): -0.1114271136E+001 Af0(s): 0.5531311035E-004 Af1(s/s): 0.0000000000E+000 week: 368 ******** Week 368 almanac for PRN-05 ******** ID: 05 Health: 000 Eccentricity: 0.5536556244E-002 Time of Applicability(s): 589824.0000 Orbital Inclination(rad): 0.9808872369 Rate of Right Ascen(r/s): -0.7508884204E-008 SQRT(A) (m 1/2): 5153.698242 Right Ascen at Week(rad): 0.3059652014E+001 Argument of Perigee(rad): 1.427542520 Mean Anom(rad): -0.4600597883E+000 Af0(s): -0.2326965332E-003 Af1(s/s): 0.0000000000E+000 week: 368 ******** Week 368 almanac for PRN-06 ******** ID: 06 Health: 000 Eccentricity: 0.3748893738E-002 Time of Applicability(s): 589824.0000 Orbital Inclination(rad): 0.9861483116 Rate of Right Ascen(r/s): -0.7966046104E-008 SQRT(A) (m 1/2): 5153.624512 Right Ascen at Week(rad): 0.2083226429E+001 Argument of Perigee(rad): -0.525452835 Mean Anom(rad): -0.2787326981E+001 Af0(s): -0.6065368652E-003 Af1(s/s): 0.3637978807E-011 week: 368 ******** Week 368 almanac for PRN-07 ******** ID: 07 Health: 000 Eccentricity: 0.2080917358E-001 Time of Applicability(s): 589824.0000 Orbital Inclination(rad): 0.9506270690 Rate of Right Ascen(r/s): -0.8023191341E-008 SQRT(A) (m 1/2): 5153.540527 Right Ascen at Week(rad): -0.1085531466E+001 Argument of Perigee(rad): -1.972397066 Mean Anom(rad): 0.2675593184E+001 Af0(s): -0.1802444458E-003 Af1(s/s): -0.3637978807E-011 week: 368 ******** Week 368 almanac for PRN-08 ******** ID: 08 Health: 000 Eccentricity: 0.1160240173E-001 Time of Applicability(s): 589824.0000 Orbital Inclination(rad): 0.9428792676 Rate of Right Ascen(r/s): -0.8114623721E-008 SQRT(A) (m 1/2): 5153.664551 Right Ascen at Week(rad): 0.9598997132E+000 Argument of Perigee(rad): 0.538914865 Mean Anom(rad): -0.8113204164E+000 Af0(s): 0.4510879517E-003 Af1(s/s): -0.7275957614E-011 week: 368 ******** Week 368 almanac for PRN-09 ******** ID: 09 Health: 000 Eccentricity: 0.3383159637E-002 Time of Applicability(s): 589824.0000 Orbital Inclination(rad): 0.9654036183 Rate of Right Ascen(r/s): -0.7691748964E-008 SQRT(A) (m 1/2): 5153.690430 Right Ascen at Week(rad): -0.2158736783E+001 Argument of Perigee(rad): 2.047065154 Mean Anom(rad): -0.2102733377E+000 Af0(s): 0.7543563843E-003 Af1(s/s): -0.3637978807E-011 week: 368 ******** Week 368 almanac for PRN-10 ******** ID: 10 Health: 000 Eccentricity: 0.1095342636E-001 Time of Applicability(s): 589824.0000 Orbital Inclination(rad): 0.9939500420 Rate of Right Ascen(r/s): -0.7371735634E-008 SQRT(A) (m 1/2): 5153.614746 Right Ascen at Week(rad): 0.3117656786E+001 Argument of Perigee(rad): -2.259001303 Mean Anom(rad): 0.1230728965E+001 Af0(s): -0.5874633789E-003 Af1(s/s): 0.0000000000E+000 week: 368 ******** Week 368 almanac for PRN-11 ******** ID: 11 Health: 000 Eccentricity: 0.2242565155E-002 Time of Applicability(s): 589824.0000 Orbital Inclination(rad): 0.9630427260 Rate of Right Ascen(r/s): -0.8194627053E-008 SQRT(A) (m 1/2): 5153.552246 Right Ascen at Week(rad): 0.2100674711E+001 Argument of Perigee(rad): -2.342284550 Mean Anom(rad): -0.1591129437E+001 Af0(s): -0.3538131714E-003 Af1(s/s): 0.1091393642E-010 week: 368 ******** Week 368 almanac for PRN-12 ******** ID: 12 Health: 000 Eccentricity: 0.8843898773E-002 Time of Applicability(s): 589824.0000 Orbital Inclination(rad): 0.9593935295 Rate of Right Ascen(r/s): -0.7600316584E-008 SQRT(A) (m 1/2): 5153.697754 Right Ascen at Week(rad): 0.3252968048E-001 Argument of Perigee(rad): 1.576474977 Mean Anom(rad): 0.1954637943E+001 Af0(s): -0.6074905396E-003 Af1(s/s): 0.0000000000E+000 week: 368 ******** Week 368 almanac for PRN-13 ******** ID: 13 Health: 063 Eccentricity: 0.1912117004E-003 Time of Applicability(s): 589824.0000 Orbital Inclination(rad): 0.9596871430 Rate of Right Ascen(r/s): -0.7600316584E-008 SQRT(A) (m 1/2): 5153.680664 Right Ascen at Week(rad): -0.7600208181E-001 Argument of Perigee(rad): 0.920126318 Mean Anom(rad): 0.2631033589E+001 Af0(s): 0.0000000000E+000 Af1(s/s): 0.0000000000E+000 week: 368 ******** Week 368 almanac for PRN-14 ******** ID: 14 Health: 000 Eccentricity: 0.7050514221E-002 Time of Applicability(s): 589824.0000 Orbital Inclination(rad): 0.9426995042 Rate of Right Ascen(r/s): -0.7771752296E-008 SQRT(A) (m 1/2): 5153.610352 Right Ascen at Week(rad): -0.2304004689E-001 Argument of Perigee(rad): -2.716937262 Mean Anom(rad): 0.1825899279E+001 Af0(s): 0.7448196411E-003 Af1(s/s): 0.0000000000E+000 week: 368 ******** Week 368 almanac for PRN-15 ******** ID: 15 Health: 000 Eccentricity: 0.1669788361E-001 Time of Applicability(s): 589824.0000 Orbital Inclination(rad): 0.9435084394 Rate of Right Ascen(r/s): -0.7897471819E-008 SQRT(A) (m 1/2): 5153.667969 Right Ascen at Week(rad): -0.2304238007E+001 Argument of Perigee(rad): 1.513317363 Mean Anom(rad): -0.1808706411E+001 Af0(s): 0.4081726074E-003 Af1(s/s): 0.3637978807E-011 week: 368 ******** Week 368 almanac for PRN-16 ******** ID: 16 Health: 000 Eccentricity: 0.1499748230E-001 Time of Applicability(s): 589824.0000 Orbital Inclination(rad): 0.9585007048 Rate of Right Ascen(r/s): -0.7634603726E-008 SQRT(A) (m 1/2): 5153.633789 Right Ascen at Week(rad): 0.4939485548E-001 Argument of Perigee(rad): 0.932863676 Mean Anom(rad): 0.2404278946E+000 Af0(s): 0.2555847168E-003 Af1(s/s): 0.7275957614E-011 week: 368 ******** Week 368 almanac for PRN-17 ******** ID: 17 Health: 000 Eccentricity: 0.1259803772E-001 Time of Applicability(s): 589824.0000 Orbital Inclination(rad): 0.9584467758 Rate of Right Ascen(r/s): -0.8000333246E-008 SQRT(A) (m 1/2): 5153.581543 Right Ascen at Week(rad): 0.1065545899E+001 Argument of Perigee(rad): -1.111004685 Mean Anom(rad): -0.8393545145E+000 Af0(s): -0.1268386841E-003 Af1(s/s): -0.7275957614E-011 week: 368 ******** Week 368 almanac for PRN-18 ******** ID: 18 Health: 000 Eccentricity: 0.5911827087E-002 Time of Applicability(s): 589824.0000 Orbital Inclination(rad): 0.9711141015 Rate of Right Ascen(r/s): -0.8114623721E-008 SQRT(A) (m 1/2): 5153.578125 Right Ascen at Week(rad): 0.2077321951E+001 Argument of Perigee(rad): -2.874535437 Mean Anom(rad): -0.2817751558E+001 Af0(s): -0.3623962402E-003 Af1(s/s): 0.1091393642E-010 week: 368 ******** Week 368 almanac for PRN-19 ******** ID: 19 Health: 000 Eccentricity: 0.1142024994E-001 Time of Applicability(s): 589824.0000 Orbital Inclination(rad): 0.9575779195 Rate of Right Ascen(r/s): -0.8023191341E-008 SQRT(A) (m 1/2): 5153.688477 Right Ascen at Week(rad): 0.1109396178E+001 Argument of Perigee(rad): 2.964380796 Mean Anom(rad): 0.9019260253E+000 Af0(s): 0.6990432739E-003 Af1(s/s): 0.0000000000E+000 week: 368 ******** Week 368 almanac for PRN-20 ******** ID: 20 Health: 000 Eccentricity: 0.2110004425E-002 Time of Applicability(s): 589824.0000 Orbital Inclination(rad): 0.9607896917 Rate of Right Ascen(r/s): -0.7771752296E-008 SQRT(A) (m 1/2): 5153.545410 Right Ascen at Week(rad): -0.2153439756E+001 Argument of Perigee(rad): -1.873178545 Mean Anom(rad): 0.1845128343E+001 Af0(s): 0.1363754272E-003 Af1(s/s): 0.1818989404E-010 week: 368 ******** Week 368 almanac for PRN-21 ******** ID: 21 Health: 000 Eccentricity: 0.8597373962E-003 Time of Applicability(s): 589824.0000 Orbital Inclination(rad): 0.9638276927 Rate of Right Ascen(r/s): -0.7657461821E-008 SQRT(A) (m 1/2): 5153.756348 Right Ascen at Week(rad): 0.3124579174E+001 Argument of Perigee(rad): -0.142237769 Mean Anom(rad): 0.1481010514E+001 Af0(s): 0.4148483276E-003 Af1(s/s): 0.0000000000E+000 week: 368 ******** Week 368 almanac for PRN-22 ******** ID: 22 Health: 000 Eccentricity: 0.1195764542E-001 Time of Applicability(s): 589824.0000 Orbital Inclination(rad): 0.9579554225 Rate of Right Ascen(r/s): -0.7623174679E-008 SQRT(A) (m 1/2): 5153.682617 Right Ascen at Week(rad): 0.5275755409E-001 Argument of Perigee(rad): -0.994687297 Mean Anom(rad): -0.1934362507E+000 Af0(s): -0.8583068848E-005 Af1(s/s): 0.7275957614E-011 week: 368 ******** Week 368 almanac for PRN-23 ******** ID: 23 Health: 000 Eccentricity: 0.6157875061E-002 Time of Applicability(s): 589824.0000 Orbital Inclination(rad): 0.9889046834 Rate of Right Ascen(r/s): -0.7428880871E-008 SQRT(A) (m 1/2): 5153.676270 Right Ascen at Week(rad): 0.3085294885E+001 Argument of Perigee(rad): -2.741549115 Mean Anom(rad): 0.2288825170E+001 Af0(s): 0.6427764893E-003 Af1(s/s): 0.3637978807E-011 week: 368 ******** Week 368 almanac for PRN-24 ******** ID: 24 Health: 000 Eccentricity: 0.1805019379E-001 Time of Applicability(s): 589824.0000 Orbital Inclination(rad): 0.9346281288 Rate of Right Ascen(r/s): -0.8228914196E-008 SQRT(A) (m 1/2): 5153.571777 Right Ascen at Week(rad): -0.1195173268E+001 Argument of Perigee(rad): 1.144360154 Mean Anom(rad): -0.2626995279E+001 Af0(s): -0.8583068848E-005 Af1(s/s): 0.1818989404E-010 week: 368 ******** Week 368 almanac for PRN-25 ******** ID: 25 Health: 000 Eccentricity: 0.1286411285E-001 Time of Applicability(s): 589824.0000 Orbital Inclination(rad): 0.9477268866 Rate of Right Ascen(r/s): -0.7714607059E-008 SQRT(A) (m 1/2): 5153.652344 Right Ascen at Week(rad): -0.6192249009E-001 Argument of Perigee(rad): 1.159799206 Mean Anom(rad): 0.1854647562E+001 Af0(s): 0.4253387451E-003 Af1(s/s): -0.3637978807E-011 week: 368 ******** Week 368 almanac for PRN-26 ******** ID: 26 Health: 000 Eccentricity: 0.1104927063E-001 Time of Applicability(s): 589824.0000 Orbital Inclination(rad): 0.9284382766 Rate of Right Ascen(r/s): -0.7954617056E-008 SQRT(A) (m 1/2): 5153.696289 Right Ascen at Week(rad): -0.1375474433E+000 Argument of Perigee(rad): 0.712881618 Mean Anom(rad): 0.1025362793E+001 Af0(s): -0.3604888916E-003 Af1(s/s): -0.3637978807E-011 week: 368 ******** Week 368 almanac for PRN-27 ******** ID: 27 Health: 000 Eccentricity: 0.1435661316E-001 Time of Applicability(s): 589824.0000 Orbital Inclination(rad): 0.9519573180 Rate of Right Ascen(r/s): -0.8034620388E-008 SQRT(A) (m 1/2): 5153.623047 Right Ascen at Week(rad): 0.9924556092E+000 Argument of Perigee(rad): 0.895805457 Mean Anom(rad): -0.6970643142E+000 Af0(s): -0.1335144043E-003 Af1(s/s): -0.1818989404E-010 week: 368 ******** Week 368 almanac for PRN-28 ******** ID: 28 Health: 000 Eccentricity: 0.4367828369E-003 Time of Applicability(s): 589824.0000 Orbital Inclination(rad): 0.9615387058 Rate of Right Ascen(r/s): -0.7908900866E-008 SQRT(A) (m 1/2): 5153.514648 Right Ascen at Week(rad): -0.1110599843E+001 Argument of Perigee(rad): -0.407070789 Mean Anom(rad): -0.2869153022E+001 Af0(s): -0.5397796631E-003 Af1(s/s): 0.1091393642E-010 week: 368 ******** Week 368 almanac for PRN-29 ******** ID: 29 Health: 000 Eccentricity: 0.3539085388E-002 Time of Applicability(s): 589824.0000 Orbital Inclination(rad): 0.9611012816 Rate of Right Ascen(r/s): -0.8000333246E-008 SQRT(A) (m 1/2): 5153.680664 Right Ascen at Week(rad): 0.1082445903E+001 Argument of Perigee(rad): 2.775622513 Mean Anom(rad): -0.8864757378E+000 Af0(s): -0.3290176392E-003 Af1(s/s): 0.7275957614E-011 week: 368 ******** Week 368 almanac for PRN-30 ******** ID: 30 Health: 000 Eccentricity: 0.8224964142E-002 Time of Applicability(s): 589824.0000 Orbital Inclination(rad): 0.9359044487 Rate of Right Ascen(r/s): -0.8183198006E-008 SQRT(A) (m 1/2): 5153.657227 Right Ascen at Week(rad): -0.1095425942E+001 Argument of Perigee(rad): -2.280089793 Mean Anom(rad): 0.2432502544E+001 Af0(s): 0.2088546753E-003 Af1(s/s): 0.1455191523E-010 week: 368 ******** Week 368 almanac for PRN-31 ******** ID: 31 Health: 000 Eccentricity: 0.1081562042E-001 Time of Applicability(s): 589824.0000 Orbital Inclination(rad): 0.9543841235 Rate of Right Ascen(r/s): -0.7977475151E-008 SQRT(A) (m 1/2): 5153.532227 Right Ascen at Week(rad): -0.1061039081E+001 Argument of Perigee(rad): 0.948387742 Mean Anom(rad): 0.1598225596E+001 Af0(s): -0.1516342163E-003 Af1(s/s): 0.3637978807E-011 week: 368 ******** Week 368 almanac for PRN-32 ******** ID: 32 Health: 000 Eccentricity: 0.9391784668E-002 Time of Applicability(s): 589824.0000 Orbital Inclination(rad): 0.9683996745 Rate of Right Ascen(r/s): -0.7646032774E-008 SQRT(A) (m 1/2): 5153.704590 Right Ascen at Week(rad): -0.2141531930E+001 Argument of Perigee(rad): -1.979144934 Mean Anom(rad): -0.1598987718E+000 Af0(s): 0.3337860107E-004 Af1(s/s): 0.1818989404E-010 week: 368